(113587) = 2002 TX46

Discovered at Socorro on 2002-10-02 by LINEAR.

Orbit

Orbit type: Main Belt

Note: WebGL enabled browser required.

epoch2023-02-25.0
epoch JD2460000.5
perihelion date2019-03-09.88061
perihelion JD2458552.38061
argument of perihelion (°)279.17889
ascending node (°)105.29327
inclination (°)2.47347
eccentricity0.1695796
perihelion distance (AU)2.5791648
Tisserand w.r.t. Jupiter3.2
ΔV w.r.t. Earth (km/sec)10.1
semimajor axis (AU)3.1058544
mean anomaly (°)260.75736
mean daily motion (°/day)0.18006620
aphelion distance (AU)3.633
period (years)5.47
P-vector [x]0.90927544
P-vector [y]0.39679235
P-vector [z]0.12559462
Q-vector [x]-0.41410777
Q-vector [y]0.83235545
Q-vector [z]0.36837368
absolute magnitude15.65
phase slope0.15
uncertainty0
referenceMPO 745323
observations used449
oppositions17
arc length (days)8469
first opposition used2000
last opposition used2023
residual rms (arc-secs)0.76
perturbers coarse indicatorM-v
perturbers precise indicator003Ek
first observation date used2000-04-10.0
last observation date used2023-06-18.0
computer nameMPCLINUX
JD of orbit computation2456966.728979
perihelion JD uncertainty (days)9.8063E-05
argument of perihelion uncertainty (°)1.8760E-04
ascending node uncertainty (°)1.8635E-04
inclination uncertainty (°)5.3623E-06
eccentricity uncertainty 8.6094E-08
perihelion distance uncertainty (AU)2.7182E-07
Minimum Orbit Intersection Distances (in AU)
for orbit epoch: 2460000.5, reference: E2023-M50
Mercury2.24126
Venus1.85442
Earth1.58275
Mars1.14167
Jupiter1.81599
Saturn5.93497
Uranus14.888
Neptune27.1068

Observations

471 total observations over interval: 2000 04 10.38346 – 2023 06 18.509888
These data are available for download (format description).

Date (UT) J2000 RA J2000 Dec Magn Location Ref
2000 04 10.38346 15 00 05.39 -13 51 45.5 22.0 R 695 – Kitt Peak MPS 100865
2000 04 10.46041 15 00 02.56 -13 51 32.5   695 – Kitt Peak MPS 100865
2002 10 02.41109 02 53 18.19 +12 49 46.5 19.7   704 – Lincoln Laboratory ETS, New Mexico MPS 63916
2002 10 02.42672 02 53 17.80 +12 49 43.9 20.0   704 – Lincoln Laboratory ETS, New Mexico MPS 63916
2002 10 02.44236 02 53 17.38 +12 49 41.4 20.4   704 – Lincoln Laboratory ETS, New Mexico MPS 63916
2002 10 02.45793 02 53 17.06 +12 49 39.9 19.9   704 – Lincoln Laboratory ETS, New Mexico MPS 63916
2002 10 03.32938 02 52 56.65 +12 47 35.5 20.0   704 – Lincoln Laboratory ETS, New Mexico MPS 63916
2002 10 03.34517 02 52 56.29 +12 47 33.8 20.1   704 – Lincoln Laboratory ETS, New Mexico MPS 63916
2002 10 03.36127 02 52 55.85 +12 47 31.1 20.1   704 – Lincoln Laboratory ETS, New Mexico MPS 63916
2002 10 03.37719 02 52 55.44 +12 47 28.6 20.2   704 – Lincoln Laboratory ETS, New Mexico MPS 63916
2002 10 03.39302 02 52 55.04 +12 47 26.8 19.9   704 – Lincoln Laboratory ETS, New Mexico MPS 63916
2002 10 11.32303 02 48 58.49 +12 25 45.9 19.5   704 – Lincoln Laboratory ETS, New Mexico MPS 68017
2002 10 11.33882 02 48 57.96 +12 25 43.9 19.7   704 – Lincoln Laboratory ETS, New Mexico MPS 68017
2002 10 11.35479 02 48 57.35 +12 25 40.3 20.0   704 – Lincoln Laboratory ETS, New Mexico MPS 68017
2002 10 11.37071 02 48 56.71 +12 25 38.0 19.6   704 – Lincoln Laboratory ETS, New Mexico MPS 68017
2002 10 11.38646 02 48 56.17 +12 25 35.3 19.5   704 – Lincoln Laboratory ETS, New Mexico MPS 68017
2002 10 26.59050 02 38 12.63 +11 34 29.0 20.3   608 – Haleakala-AMOS MPS 66041
2002 10 26.60116 02 38 12.12 +11 34 27.1 20.1   608 – Haleakala-AMOS MPS 66041
2002 10 26.61166 02 38 11.62 +11 34 24.6 20.3   608 – Haleakala-AMOS MPS 66041
2002 10 30.31958 02 35 13.13 +11 21 17.2 19.0   644 – Palomar Mountain/NEAT MPS 66041
2002 10 30.34388 02 35 11.89 +11 21 12.0 19.5   644 – Palomar Mountain/NEAT MPS 66041
2002 10 30.42773 02 35 07.67 +11 20 53.8 19.3   644 – Palomar Mountain/NEAT MPS 66041
2002 11 04.16786 02 31 16.33 +11 04 28.6 18.5 R 699 – Lowell Observatory-LONEOS MPS 66041
2002 11 04.18542 02 31 15.41 +11 04 24.2   699 – Lowell Observatory-LONEOS MPS 66041
2002 11 04.20296 02 31 14.57 +11 04 22.2   699 – Lowell Observatory-LONEOS MPS 66041
2002 11 04.22048 02 31 13.61 +11 04 17.6   699 – Lowell Observatory-LONEOS MPS 66041
2002 11 11.25792 02 25 37.84 +10 41 46.1 19.3   704 – Lincoln Laboratory ETS, New Mexico MPS 66041
2002 11 11.27519 02 25 37.12 +10 41 43.0 19.3   704 – Lincoln Laboratory ETS, New Mexico MPS 66041
2002 11 11.29247 02 25 36.24 +10 41 41.2 19.4   704 – Lincoln Laboratory ETS, New Mexico MPS 66041
2002 11 11.30979 02 25 35.40 +10 41 37.8 19.4   704 – Lincoln Laboratory ETS, New Mexico MPS 66041
2002 11 22.30304 02 17 57.26 +10 14 32.8 19.3   644 – Palomar Mountain/NEAT MPS 68017
2002 11 22.32437 02 17 56.44 +10 14 30.6 19.4   644 – Palomar Mountain/NEAT MPS 68017
2002 11 22.34477 02 17 55.68 +10 14 28.0 19.5   644 – Palomar Mountain/NEAT MPS 68017
2002 12 01.22974 02 13 21.52 +10 02 28.6 19.4   704 – Lincoln Laboratory ETS, New Mexico MPS 68017
2002 12 01.24525 02 13 21.15 +10 02 28.0 19.5   704 – Lincoln Laboratory ETS, New Mexico MPS 68017
2002 12 01.27574 02 13 20.29 +10 02 25.9 19.6   704 – Lincoln Laboratory ETS, New Mexico MPS 68017
2003 12 22.35843 09 33 28.54 +15 42 29.6 21.0 V 291 – LPL/Spacewatch II MPS 97784
2003 12 22.38215 09 33 28.22 +15 42 32.2 21.2 V 291 – LPL/Spacewatch II MPS 97784
2003 12 22.41146 09 33 27.85 +15 42 35.1 21.3 V 291 – LPL/Spacewatch II MPS 97784
2004 01 22.29612 09 17 33.27 +17 23 17.7 19.8   704 – Lincoln Laboratory ETS, New Mexico MPS 97784
2004 01 22.30901 09 17 32.70 +17 23 20.0 19.8   704 – Lincoln Laboratory ETS, New Mexico MPS 97784
2004 01 22.32202 09 17 31.98 +17 23 22.7 20.3   704 – Lincoln Laboratory ETS, New Mexico MPS 97784
2004 01 22.33478 09 17 31.48 +17 23 26.6 20.3   704 – Lincoln Laboratory ETS, New Mexico MPS 97784
2004 01 22.34780 09 17 30.81 +17 23 30.3 19.8   704 – Lincoln Laboratory ETS, New Mexico MPS 97784
2004 01 30.28460 09 11 10.19 +17 57 09.8 20.4 V 691 – Steward Observatory, Kitt Peak-Spacewatch MPS 97784
2004 01 30.32750 09 11 08.04 +17 57 20.4 20.5 V 691 – Steward Observatory, Kitt Peak-Spacewatch MPS 97784
2004 01 30.35476 09 11 06.64 +17 57 27.6 20.4 V 691 – Steward Observatory, Kitt Peak-Spacewatch MPS 97784
2004 02 11.19140 09 01 22.52 +18 45 26.2 20.8 V 691 – Steward Observatory, Kitt Peak-Spacewatch MPS 98775
2004 02 11.21946 09 01 21.13 +18 45 32.7 20.6 V 691 – Steward Observatory, Kitt Peak-Spacewatch MPS 98775
2004 02 11.24682 09 01 19.78 +18 45 39.0 20.6 V 691 – Steward Observatory, Kitt Peak-Spacewatch MPS 98775
2004 02 23.23240 08 52 23.40 +19 26 10.4 21.0   704 – Lincoln Laboratory ETS, New Mexico MPS 100055
2004 02 23.24379 08 52 22.88 +19 26 12.9 20.5   704 – Lincoln Laboratory ETS, New Mexico MPS 100055
2004 02 23.26657 08 52 21.96 +19 26 16.7 20.9   704 – Lincoln Laboratory ETS, New Mexico MPS 100055
2005 04 01.22077 13 02 34.19 -02 58 25.1 20.8 V 691 – Steward Observatory, Kitt Peak-Spacewatch MPS 134811
2005 04 01.23858 13 02 33.42 -02 58 20.1 20.5 V 691 – Steward Observatory, Kitt Peak-Spacewatch MPS 134811
2005 04 01.25638 13 02 32.64 -02 58 15.4 21.1 V 691 – Steward Observatory, Kitt Peak-Spacewatch MPS 134811
2005 04 11.27370 12 55 21.51 -02 13 27.8 19.6 R G96 – Mt. Lemmon Survey MPS 134811
2005 04 11.27897 12 55 21.32 -02 13 26.3 20.0 R G96 – Mt. Lemmon Survey MPS 134811
2005 04 11.28423 12 55 21.08 -02 13 24.9 19.8 R G96 – Mt. Lemmon Survey MPS 134811
2005 04 11.28954 12 55 20.84 -02 13 23.5 20.0 R G96 – Mt. Lemmon Survey MPS 134811
2005 05 11.24462 12 38 09.97 -00 38 53.5 21.2 R G96 – Mt. Lemmon Survey MPS 133951
2005 05 11.25201 12 38 09.83 -00 38 52.1 20.3 R G96 – Mt. Lemmon Survey MPS 133951
2005 05 11.25948 12 38 09.65 -00 38 52.3 21.2 R G96 – Mt. Lemmon Survey MPS 133951
2005 05 11.26691 12 38 09.43 -00 38 51.1 20.5 R G96 – Mt. Lemmon Survey MPS 133951
2005 05 13.13735 12 37 29.43 -00 35 57.3 21.3 V 691 – Steward Observatory, Kitt Peak-Spacewatch MPS 133951
2005 05 13.15544 12 37 28.98 -00 35 56.2 21.1 V 691 – Steward Observatory, Kitt Peak-Spacewatch MPS 133951
2005 05 13.17515 12 37 28.55 -00 35 54.4 21.5 V 691 – Steward Observatory, Kitt Peak-Spacewatch MPS 133951
2007 08 08.28359 22 56 01.84 -09 46 57.1 20.0   704 – Lincoln Laboratory ETS, New Mexico MPS 212965
2007 08 08.29535 22 56 01.48 -09 47 01.0 19.5   704 – Lincoln Laboratory ETS, New Mexico MPS 212965
2007 08 08.31882 22 56 00.77 -09 47 06.8 20.0   704 – Lincoln Laboratory ETS, New Mexico MPS 212965
2007 08 13.78868 22 53 04.37 -10 11 39.4 19.1 R D29 – Purple Mountain Observatory, XuYi Station MPS 213574
2007 08 13.80002 22 53 03.96 -10 11 42.7 19.1 R D29 – Purple Mountain Observatory, XuYi Station MPS 213574
2007 08 13.82135 22 53 03.11 -10 11 49.8 19.3 R D29 – Purple Mountain Observatory, XuYi Station MPS 213574
2007 08 13.83369 22 53 02.72 -10 11 53.2 19.5 R D29 – Purple Mountain Observatory, XuYi Station MPS 213574
2007 09 03.22272 22 38 51.72 -11 54 53.5 19.1 V 703 – Catalina Sky Survey MPS 214868
2007 09 03.22914 22 38 51.39 -11 54 55.8 18.7 V 703 – Catalina Sky Survey MPS 214868
2007 09 03.23558 22 38 51.10 -11 54 58.0 19.6 V 703 – Catalina Sky Survey MPS 214868
2007 09 03.24203 22 38 50.85 -11 54 59.1 19.4 V 703 – Catalina Sky Survey MPS 214868
2007 09 06.20323 22 36 37.80 -12 09 33.8 18.9 R 699 – Lowell Observatory-LONEOS MPS 214868
2007 09 06.22607 22 36 36.72 -12 09 39.7   699 – Lowell Observatory-LONEOS MPS 214868
2007 09 06.24891 22 36 35.71 -12 09 46.5   699 – Lowell Observatory-LONEOS MPS 214868
2007 09 06.27174 22 36 34.61 -12 09 53.8   699 – Lowell Observatory-LONEOS MPS 214868
2007 09 11.22172 22 32 57.15 -12 32 54.5 19.1 V 691 – Steward Observatory, Kitt Peak-Spacewatch MPS 215821
2007 09 11.23935 22 32 56.32 -12 32 57.5 19.0 V 691 – Steward Observatory, Kitt Peak-Spacewatch MPS 215821
2007 09 11.25698 22 32 55.65 -12 33 02.1 19.3 V 691 – Steward Observatory, Kitt Peak-Spacewatch MPS 215821
2007 09 15.21146 22 30 10.80 -12 49 49.9 19.4 R 699 – Lowell Observatory-LONEOS MPS 217570
2007 09 15.23431 22 30 09.63 -12 49 56.7   699 – Lowell Observatory-LONEOS MPS 217570
